TimeEST,TemperatureF,Dew PointF,Humidity,Sea Level PressureIn,VisibilityMPH,Wind Direction,Wind SpeedMPH,Gust SpeedMPH,PrecipitationIn,Events,Conditions,WindDirDegrees,DateUTC
12:15 AM,32.0,32.0,100,30.13,4.0,Calm,Calm,-,N/A,,Clear,0,2012-11-21 05:15:00
12:35 AM,31.8,31.6,99,30.13,2.5,Calm,Calm,-,N/A,,Clear,0,2012-11-21 05:35:00
12:55 AM,31.8,31.6,99,30.12,4.0,Calm,Calm,-,N/A,,Clear,0,2012-11-21 05:55:00
1:15 AM,31.5,31.3,99,30.11,4.0,Calm,Calm,-,N/A,,Clear,0,2012-11-21 06:15:00
1:35 AM,31.3,30.9,99,30.11,4.0,Calm,Calm,-,N/A,,Clear,0,2012-11-21 06:35:00
1:55 AM,31.1,30.9,99,30.12,4.0,Calm,Calm,-,N/A,,Clear,0,2012-11-21 06:55:00
2:15 AM,31.6,31.5,99,30.12,5.0,Calm,Calm,-,N/A,,Clear,0,2012-11-21 07:15:00
2:35 AM,30.9,30.7,99,30.12,4.0,Calm,Calm,-,N/A,,Clear,0,2012-11-21 07:35:00
2:55 AM,30.0,29.8,99,30.12,3.0,Calm,Calm,-,N/A,,Clear,0,2012-11-21 07:55:00
3:15 AM,29.7,29.5,99,30.12,4.0,Calm,Calm,-,N/A,,Clear,0,2012-11-21 08:15:00
3:35 AM,30.2,29.8,99,30.13,5.0,Calm,Calm,-,N/A,,Clear,0,2012-11-21 08:35:00
3:55 AM,30.0,29.5,98,30.13,5.0,Calm,Calm,-,N/A,,Clear,0,2012-11-21 08:55:00
4:15 AM,30.4,30.2,99,30.13,7.0,Calm,Calm,-,N/A,,Clear,0,2012-11-21 09:15:00
4:35 AM,29.3,28.9,99,30.13,5.0,Calm,Calm,-,N/A,,Clear,0,2012-11-21 09:35:00
4:55 AM,29.7,29.3,99,30.14,5.0,Calm,Calm,-,N/A,,Mostly Cloudy,0,2012-11-21 09:55:00
5:15 AM,28.9,28.6,99,30.14,5.0,Calm,Calm,-,N/A,,Scattered Clouds,0,2012-11-21 10:15:00
5:35 AM,28.4,28.0,99,30.14,7.0,Calm,Calm,-,N/A,,Clear,0,2012-11-21 10:35:00
5:55 AM,27.9,27.7,99,30.15,7.0,Calm,Calm,-,N/A,,Clear,0,2012-11-21 10:55:00
6:15 AM,28.4,28.0,99,30.15,7.0,Calm,Calm,-,N/A,,Clear,0,2012-11-21 11:15:00
6:35 AM,28.0,27.7,99,30.15,7.0,Calm,Calm,-,N/A,,Clear,0,2012-11-21 11:35:00
7:15 AM,27.7,27.3,99,30.16,7.0,Calm,Calm,-,N/A,,Clear,0,2012-11-21 12:15:00
7:35 AM,27.9,27.5,99,30.17,7.0,Calm,Calm,-,N/A,,Scattered Clouds,0,2012-11-21 12:35:00
7:55 AM,28.8,28.2,98,30.18,7.0,Calm,Calm,-,N/A,,Clear,0,2012-11-21 12:55:00
8:15 AM,30.4,30.0,99,30.19,7.0,Calm,Calm,-,N/A,,Clear,0,2012-11-21 13:15:00
8:35 AM,32.4,32.0,99,30.19,5.0,Calm,Calm,-,N/A,,Clear,0,2012-11-21 13:35:00
8:55 AM,35.6,35.2,99,30.19,7.0,Calm,Calm,-,N/A,,Clear,0,2012-11-21 13:55:00
9:15 AM,39.0,37.9,96,30.19,10.0,Calm,Calm,-,N/A,,Clear,0,2012-11-21 14:15:00
9:35 AM,42.6,40.1,91,30.19,10.0,Calm,Calm,-,N/A,,Clear,0,2012-11-21 14:35:00
9:55 AM,46.2,42.1,85,30.19,10.0,ENE,3.5,-,N/A,,Clear,60,2012-11-21 14:55:00
10:15 AM,48.4,42.4,80,30.20,10.0,Calm,Calm,-,N/A,,Clear,0,2012-11-21 15:15:00
10:35 AM,49.8,42.6,76,30.20,10.0,Calm,Calm,-,N/A,,Clear,0,2012-11-21 15:35:00
10:55 AM,51.4,42.8,72,30.19,10.0,NE,3.5,-,N/A,,Clear,40,2012-11-21 15:55:00
11:15 AM,53.1,42.6,68,30.19,10.0,Calm,Calm,-,N/A,,Clear,0,2012-11-21 16:15:00
11:35 AM,54.9,42.1,62,30.18,10.0,ENE,3.5,-,N/A,,Clear,70,2012-11-21 16:35:00
11:55 AM,55.9,41.0,57,30.17,10.0,Calm,Calm,-,N/A,,Clear,0,2012-11-21 16:55:00
12:15 PM,56.8,40.5,54,30.16,10.0,Calm,Calm,-,N/A,,Clear,0,2012-11-21 17:15:00
12:35 PM,57.9,39.4,50,30.15,10.0,NNE,4.6,-,N/A,,Clear,20,2012-11-21 17:35:00
12:55 PM,58.6,38.3,47,30.15,10.0,NE,3.5,-,N/A,,Clear,40,2012-11-21 17:55:00
1:15 PM,59.4,36.9,43,30.14,10.0,NNE,5.8,-,N/A,,Clear,20,2012-11-21 18:15:00
1:35 PM,59.9,34.5,39,30.14,10.0,NNE,3.5,-,N/A,,Clear,20,2012-11-21 18:35:00
1:55 PM,60.6,32.7,35,30.14,10.0,Calm,Calm,-,N/A,,Clear,0,2012-11-21 18:55:00
2:15 PM,60.8,31.8,34,30.13,10.0,NNE,5.8,-,N/A,,Clear,30,2012-11-21 19:15:00
2:35 PM,60.8,31.8,34,30.13,10.0,ENE,4.6,-,N/A,,Clear,60,2012-11-21 19:35:00
2:55 PM,61.0,31.8,33,30.12,10.0,NNE,3.5,-,N/A,,Clear,20,2012-11-21 19:55:00
3:15 PM,61.0,32.2,34,30.12,10.0,North,3.5,-,N/A,,Clear,10,2012-11-21 20:15:00
3:35 PM,60.8,32.2,34,30.13,10.0,NE,3.5,-,N/A,,Clear,40,2012-11-21 20:35:00
3:55 PM,60.4,32.4,35,30.14,10.0,NE,3.5,-,N/A,,Clear,50,2012-11-21 20:55:00
4:15 PM,59.9,32.5,36,30.14,10.0,Calm,Calm,-,N/A,,Clear,0,2012-11-21 21:15:00
4:35 PM,59.0,32.9,37,30.14,10.0,Calm,Calm,-,N/A,,Clear,0,2012-11-21 21:35:00
4:55 PM,56.1,34.0,43,30.14,10.0,Calm,Calm,-,N/A,,Clear,0,2012-11-21 21:55:00
5:15 PM,50.7,35.6,56,30.14,10.0,Calm,Calm,-,N/A,,Clear,0,2012-11-21 22:15:00
5:35 PM,47.7,34.3,60,30.14,10.0,Calm,Calm,-,N/A,,Clear,0,2012-11-21 22:35:00
5:55 PM,44.4,33.6,66,30.15,10.0,Calm,Calm,-,N/A,,Clear,0,2012-11-21 22:55:00
6:15 PM,42.6,33.3,69,30.15,10.0,Calm,Calm,-,N/A,,Clear,0,2012-11-21 23:15:00
6:35 PM,41.4,33.3,73,30.16,10.0,Calm,Calm,-,N/A,,Clear,0,2012-11-21 23:35:00
6:55 PM,40.3,33.1,75,30.17,10.0,Calm,Calm,-,N/A,,Clear,0,2012-11-21 23:55:00
7:15 PM,39.7,33.4,78,30.17,10.0,Calm,Calm,-,N/A,,Clear,0,2012-11-22 00:15:00
7:35 PM,38.5,33.3,81,30.18,10.0,Calm,Calm,-,N/A,,Clear,0,2012-11-22 00:35:00
7:55 PM,37.6,33.1,84,30.18,10.0,Calm,Calm,-,N/A,,Clear,0,2012-11-22 00:55:00
8:15 PM,36.3,32.7,87,30.19,10.0,Calm,Calm,-,N/A,,Clear,0,2012-11-22 01:15:00
8:35 PM,35.4,32.4,89,30.19,10.0,Calm,Calm,-,N/A,,Clear,0,2012-11-22 01:35:00
8:55 PM,35.1,32.2,89,30.19,10.0,Calm,Calm,-,N/A,,Clear,0,2012-11-22 01:55:00
9:15 PM,34.7,32.2,91,30.20,10.0,Calm,Calm,-,N/A,,Clear,0,2012-11-22 02:15:00
9:35 PM,34.7,32.2,91,30.21,10.0,Calm,Calm,-,N/A,,Clear,0,2012-11-22 02:35:00
9:55 PM,34.7,32.2,91,30.21,10.0,Calm,Calm,-,N/A,,Clear,0,2012-11-22 02:55:00
10:15 PM,34.0,32.0,92,30.21,10.0,Calm,Calm,-,N/A,,Clear,0,2012-11-22 03:15:00
10:35 PM,32.7,31.5,95,30.21,10.0,Calm,Calm,-,N/A,,Clear,0,2012-11-22 03:35:00
10:55 PM,32.2,30.9,95,30.21,10.0,Calm,Calm,-,N/A,,Clear,0,2012-11-22 03:55:00
11:15 PM,31.8,30.6,95,30.21,7.0,Calm,Calm,-,N/A,,Clear,0,2012-11-22 04:15:00
11:35 PM,31.6,30.6,96,30.21,5.0,Calm,Calm,-,N/A,,Clear,0,2012-11-22 04:35:00
11:55 PM,31.1,30.0,96,30.21,7.0,Calm,Calm,-,N/A,,Clear,0,2012-11-22 04:55:00